• In Hungary
  • List of Countries
  • For 7 days
  • Water Temperature
  • Satellite Maps
  • Weather Map
  • News
  • Weather Widgets
  • user-avatar
    Login

    Hourly Weather San Marcos de Colón

    Today, 15 December, Friday

    Time Temperature Precipitation Wind Pressure Humidity
    00:00 +17°C° 0 mm 2 mps 679 mmHg 84%
    01:00 +17°C° 0 mm 2 mps 678 mmHg 85%
    02:00 +17°C° 0 mm 2 mps 678 mmHg 85%
    03:00 +17°C° 0 mm 2 mps 678 mmHg 86%
    04:00 +17°C° 0 mm 2 mps 678 mmHg 86%
    05:00 +17°C° 0 mm 2 mps 678 mmHg 86%
    06:00 +17°C° 0 mm 2 mps 678 mmHg 87%
    07:00 +19°C° 0 mm 2 mps 679 mmHg 78%
    08:00 +21°C° 0 mm 2 mps 680 mmHg 69%
    09:00 +25°C° 0 mm 2 mps 681 mmHg 61%
    10:00 +26°C° 0 mm 3 mps 680 mmHg 57%
    11:00 +27°C° 0 mm 3 mps 680 mmHg 53%
    12:00 +28°C° 0 mm 3 mps 680 mmHg 49%
    13:00 +28°C° 0 mm 3 mps 680 mmHg 49%
    14:00 +28°C° 0 mm 3 mps 679 mmHg 49%
    15:00 +28°C° 0 mm 3 mps 678 mmHg 49%
    16:00 +26°C° 0 mm 3 mps 678 mmHg 56%
    17:00 +25°C° 0 mm 2 mps 678 mmHg 64%
    18:00 +23°C° 0 mm 1 mps 678 mmHg 71%
    19:00 +22°C° 0 mm 1 mps 678 mmHg 75%
    20:00 +21°C° 0 mm 1 mps 679 mmHg 79%
    21:00 +20°C° 0 mm 1 mps 679 mmHg 83%
    22:00 +19°C° 0 mm 2 mps 679 mmHg 85%
    23:00 +18°C° 0 mm 2 mps 679 mmHg 87%

    Tomorrow, 16 December, Saturday

    Time Temperature Precipitation Wind Pressure Humidity
    00:00 +18°C° 0 mm 2 mps 679 mmHg 89%
    01:00 +18°C° 0 mm 2 mps 679 mmHg 89%
    02:00 +18°C° 0 mm 2 mps 679 mmHg 89%
    03:00 +18°C° 0 mm 2 mps 678 mmHg 90%
    04:00 +18°C° 0 mm 2 mps 678 mmHg 89%
    05:00 +18°C° 0 mm 2 mps 679 mmHg 89%
    06:00 +18°C° 0 mm 2 mps 679 mmHg 88%
    07:00 +20°C° 0 mm 2 mps 680 mmHg 80%
    08:00 +22°C° 0 mm 3 mps 681 mmHg 72%
    09:00 +25°C° 0 mm 3 mps 682 mmHg 63%
    10:00 +26°C° 0 mm 4 mps 681 mmHg 61%
    11:00 +27°C° 0 mm 4 mps 681 mmHg 58%
    12:00 +27°C° 0 mm 4 mps 680 mmHg 55%
    13:00 +28°C° 0 mm 4 mps 680 mmHg 54%
    14:00 +28°C° 0 mm 4 mps 679 mmHg 52%
    15:00 +28°C° 0 mm 4 mps 679 mmHg 51%
    16:00 +26°C° 0 mm 4 mps 679 mmHg 56%
    17:00 +24°C° 0 mm 3 mps 679 mmHg 61%
    18:00 +23°C° 0 mm 2 mps 678 mmHg 67%
    19:00 +21°C° 0 mm 2 mps 679 mmHg 70%
    20:00 +20°C° 0 mm 2 mps 679 mmHg 73%
    21:00 +19°C° 0 mm 2 mps 680 mmHg 77%
    22:00 +18°C° 0 mm 2 mps 679 mmHg 80%
    23:00 +18°C° 0 mm 2 mps 679 mmHg 83%

    Day after tomorrow, 17 December, Sunday

    Time Temperature Precipitation Wind Pressure Humidity
    00:00 +17°C° 0 mm 2 mps 679 mmHg 87%
    01:00 +17°C° 0 mm 2 mps 679 mmHg 86%
    02:00 +17°C° 0 mm 2 mps 678 mmHg 86%
    03:00 +17°C° 0 mm 2 mps 678 mmHg 85%
    04:00 +17°C° 0 mm 2 mps 678 mmHg 85%
    05:00 +18°C° 0 mm 2 mps 679 mmHg 84%
    06:00 +18°C° 0 mm 2 mps 679 mmHg 83%
    07:00 +20°C° 0 mm 3 mps 680 mmHg 78%
    08:00 +21°C° 0 mm 3 mps 681 mmHg 72%
    09:00 +23°C° 0 mm 4 mps 681 mmHg 67%
    10:00 +23°C° 0 mm 4 mps 681 mmHg 67%
    11:00 +23°C° 0 mm 4 mps 680 mmHg 67%
    12:00 +23°C° 0 mm 4 mps 680 mmHg 68%
    13:00 +25°C° 0 mm 4 mps 679 mmHg 66%
    14:00 +25°C° 0 mm 4 mps 679 mmHg 64%
    15:00 +26°C° 0 mm 4 mps 678 mmHg 62%
    16:00 +25°C° 0 mm 4 mps 678 mmHg 67%
    17:00 +22°C° 0 mm 3 mps 678 mmHg 73%
    18:00 +21°C° 0 mm 2 mps 678 mmHg 78%
    19:00 +21°C° 0 mm 2 mps 679 mmHg 80%
    20:00 +20°C° 0 mm 2 mps 679 mmHg 81%
    21:00 +20°C° 0 mm 2 mps 680 mmHg 83%
    22:00 +20°C° 0 mm 2 mps 679 mmHg 83%
    23:00 +19°C° 0 mm 2 mps 679 mmHg 84%

    18 December, Monday

    Time Temperature Precipitation Wind Pressure Humidity
    00:00 +19°C° 0 mm 2 mps 679 mmHg 85%
    01:00 +19°C° 0 mm 2 mps 679 mmHg 85%
    02:00 +19°C° 0 mm 2 mps 678 mmHg 85%
    03:00 +19°C° 0 mm 2 mps 678 mmHg 85%
    04:00 +19°C° 0 mm 2 mps 678 mmHg 85%
    05:00 +19°C° 0 mm 2 mps 678 mmHg 86%
    06:00 +19°C° 0 mm 2 mps 679 mmHg 86%
    07:00 +21°C° 0.1 mm 3 mps 679 mmHg 79%
    08:00 +22°C° 0.1 mm 4 mps 680 mmHg 72%
    09:00 +25°C° 0.1 mm 5 mps 681 mmHg 65%
    10:00 +26°C° 0 mm 5 mps 681 mmHg 60%
    11:00 +27°C° 0 mm 5 mps 681 mmHg 55%
    12:00 +28°C° 0 mm 5 mps 680 mmHg 50%
    13:00 +28°C° 0 mm 5 mps 680 mmHg 51%
    14:00 +28°C° 0 mm 5 mps 679 mmHg 52%
    15:00 +28°C° 0 mm 5 mps 678 mmHg 53%
    16:00 +26°C° 0 mm 4 mps 678 mmHg 60%
    17:00 +24°C° 0 mm 3 mps 679 mmHg 67%
    18:00 +23°C° 0 mm 2 mps 679 mmHg 74%
    19:00 +21°C° 0 mm 2 mps 679 mmHg 77%
    20:00 +20°C° 0 mm 2 mps 679 mmHg 80%
    21:00 +20°C° 0 mm 2 mps 680 mmHg 83%
    22:00 +19°C° 0 mm 2 mps 680 mmHg 85%
    23:00 +19°C° 0 mm 2 mps 679 mmHg 86%

    19 December, Tuesday

    Time Temperature Precipitation Wind Pressure Humidity
    00:00 +18°C° 0 mm 2 mps 679 mmHg 88%
    01:00 +18°C° 0 mm 2 mps 679 mmHg 87%
    02:00 +18°C° 0 mm 2 mps 678 mmHg 87%
    03:00 +18°C° 0 mm 2 mps 678 mmHg 87%
    04:00 +18°C° 0 mm 2 mps 678 mmHg 87%
    05:00 +18°C° 0 mm 2 mps 678 mmHg 87%
    06:00 +18°C° 0 mm 2 mps 679 mmHg 87%
    07:00 +20°C° 0 mm 3 mps 680 mmHg 80%
    08:00 +22°C° 0 mm 3 mps 680 mmHg 72%
    09:00 +25°C° 0 mm 4 mps 681 mmHg 65%
    10:00 +26°C° 0 mm 4 mps 681 mmHg 62%
    11:00 +27°C° 0 mm 4 mps 680 mmHg 58%
    12:00 +28°C° 0 mm 4 mps 680 mmHg 55%
    13:00 +28°C° 0 mm 4 mps 680 mmHg 54%
    14:00 +28°C° 0 mm 4 mps 679 mmHg 53%
    15:00 +28°C° 0 mm 4 mps 678 mmHg 52%
    16:00 +26°C° 0 mm 3 mps 678 mmHg 59%
    17:00 +25°C° 0 mm 3 mps 679 mmHg 65%
    18:00 +23°C° 0 mm 2 mps 679 mmHg 72%
    19:00 +21°C° 0 mm 2 mps 679 mmHg 75%
    20:00 +21°C° 0 mm 2 mps 679 mmHg 78%
    21:00 +20°C° 0 mm 2 mps 680 mmHg 81%
    22:00 +20°C° 0 mm 2 mps 680 mmHg 82%
    23:00 +20°C° 0 mm 2 mps 679 mmHg 84%

    20 December, Wednesday

    Time Temperature Precipitation Wind Pressure Humidity
    00:00 +20°C° 0 mm 2 mps 679 mmHg 85%
    01:00 +19°C° 0 mm 2 mps 679 mmHg 85%
    02:00 +19°C° 0 mm 2 mps 679 mmHg 86%
    03:00 +19°C° 0 mm 2 mps 678 mmHg 86%
    04:00 +19°C° 0 mm 2 mps 679 mmHg 86%
    05:00 +19°C° 0 mm 2 mps 679 mmHg 86%
    06:00 +19°C° 0 mm 2 mps 679 mmHg 86%
    07:00 +21°C° 0 mm 2 mps 680 mmHg 79%
    08:00 +22°C° 0 mm 3 mps 680 mmHg 72%
    09:00 +23°C° 0 mm 4 mps 681 mmHg 66%
    10:00 +26°C° 0 mm 4 mps 681 mmHg 58%
    11:00 +27°C° 0 mm 4 mps 680 mmHg 51%
    12:00 +29°C° 0 mm 5 mps 680 mmHg 44%
    13:00 +29°C° 0 mm 5 mps 679 mmHg 42%
    14:00 +29°C° 0 mm 5 mps 679 mmHg 41%
    15:00 +30°C° 0 mm 5 mps 678 mmHg 40%
    16:00 +28°C° 0 mm 4 mps 678 mmHg 48%
    17:00 +26°C° 0 mm 3 mps 678 mmHg 56%
    18:00 +24°C° 0 mm 2 mps 678 mmHg 64%
    19:00 +23°C° 0 mm 2 mps 679 mmHg 69%
    20:00 +21°C° 0 mm 2 mps 679 mmHg 74%
    21:00 +20°C° 0 mm 2 mps 679 mmHg 79%
    22:00 +20°C° 0 mm 2 mps 679 mmHg 80%
    23:00 +20°C° 0 mm 2 mps 679 mmHg 81%
    Show more